RYR75T LPMA-GCFV

Flight info

Callsign RYR75T
Flight time 1h 3m
Altitude 31000
Route GOSGA DCT ORTIS N728 BRICK/N0470F290 DCT GDV
Aircraft B738/M-SDE2E3FGHIRWXY/LB1

Departure

Time 2026-05-07 15:09
Airport Cristiano Ronaldo International Airport (LPMA)

Arrival

Time 2026-05-07 16:13
Airport Fuerteventura Airport (GCFV)
Time Latitude Longitude Altitude Speed Heading
2026-05-07 14:50 32.69465 -16.77517 172 ft 0 kts 137°
2026-05-07 15:03 32.69476 -16.77529 175 ft 2 kts 137°
2026-05-07 15:03 32.69488 -16.77541 178 ft 2 kts 137°
2026-05-07 15:04 32.69500 -16.77551 181 ft 2 kts 161°
2026-05-07 15:04 32.69515 -16.77554 184 ft 2 kts 180°
2026-05-07 15:04 32.69530 -16.77551 186 ft 2 kts 201°
2026-05-07 15:04 32.69542 -16.77542 187 ft 1 kts 222°
2026-05-07 15:05 32.69545 -16.77538 187 ft 0 kts 227°
2026-05-07 15:06 32.69544 -16.77540 187 ft 2 kts 227°
2026-05-07 15:06 32.69499 -16.77596 186 ft 17 kts 225°
2026-05-07 15:06 32.69376 -16.77746 181 ft 30 kts 226°
2026-05-07 15:07 32.69287 -16.77939 178 ft 24 kts 274°
2026-05-07 15:07 32.69226 -16.78107 173 ft 24 kts 224°
2026-05-07 15:07 32.69090 -16.78266 156 ft 30 kts 225°
2026-05-07 15:07 32.68930 -16.78401 138 ft 15 kts 195°
2026-05-07 15:08 32.68901 -16.78447 135 ft 8 kts 320°
2026-05-07 15:08 32.68930 -16.78446 138 ft 2 kts 34°
2026-05-07 15:08 32.68980 -16.78388 144 ft 35 kts 43°
2026-05-07 15:08 32.69336 -16.77971 188 ft 105 kts 44°
2026-05-07 15:09 32.70021 -16.77167 201 ft 168 kts 46°
2026-05-07 15:09 32.70879 -16.76093 702 ft 184 kts 45°
2026-05-07 15:09 32.71777 -16.75095 1690 ft 174 kts 34°
2026-05-07 15:09 32.72759 -16.74317 2211 ft 178 kts 41°
2026-05-07 15:10 32.73364 -16.72984 2476 ft 196 kts 86°
2026-05-07 15:10 32.72984 -16.71443 2853 ft 204 kts 131°
2026-05-07 15:10 32.71749 -16.70582 3144 ft 217 kts 173°
2026-05-07 15:10 32.70202 -16.70670 3532 ft 231 kts 194°
2026-05-07 15:11 32.68630 -16.71200 3992 ft 243 kts 201°
2026-05-07 15:11 32.67030 -16.72035 4477 ft 256 kts 206°
2026-05-07 15:11 32.65333 -16.72786 5100 ft 264 kts 195°
2026-05-07 15:11 32.63521 -16.73077 5814 ft 268 kts 183°
2026-05-07 15:12 32.61655 -16.72976 6549 ft 272 kts 176°
2026-05-07 15:12 32.59757 -16.72674 7215 ft 277 kts 174°
2026-05-07 15:12 32.57822 -16.72298 7881 ft 282 kts 174°
2026-05-07 15:12 32.55871 -16.71916 8525 ft 286 kts 175°
2026-05-07 15:13 32.53898 -16.71547 9210 ft 290 kts 176°
2026-05-07 15:13 32.51895 -16.71184 9859 ft 293 kts 176°
2026-05-07 15:13 32.49855 -16.70819 10436 ft 300 kts 176°
2026-05-07 15:13 32.47745 -16.70447 10773 ft 315 kts 176°
2026-05-07 15:14 32.45504 -16.70056 11141 ft 330 kts 176°
2026-05-07 15:14 32.43182 -16.69649 11521 ft 344 kts 176°
2026-05-07 15:14 32.40762 -16.69226 11841 ft 359 kts 176°
2026-05-07 15:14 32.38260 -16.68790 12160 ft 373 kts 176°
2026-05-07 15:15 32.35656 -16.68335 12606 ft 384 kts 176°
2026-05-07 15:15 32.32950 -16.67857 13268 ft 388 kts 176°
2026-05-07 15:15 32.30261 -16.67376 13902 ft 393 kts 176°
2026-05-07 15:15 32.27546 -16.66891 14606 ft 396 kts 177°
2026-05-07 15:16 32.24818 -16.66402 15317 ft 398 kts 177°
2026-05-07 15:16 32.22063 -16.65907 16060 ft 400 kts 177°
2026-05-07 15:16 32.19327 -16.65417 16688 ft 404 kts 178°
2026-05-07 15:16 32.16528 -16.64914 17410 ft 405 kts 178°
2026-05-07 15:17 32.13744 -16.64412 18112 ft 406 kts 178°
2026-05-07 15:17 32.10946 -16.63912 18629 ft 411 kts 178°
2026-05-07 15:17 32.08100 -16.63405 19334 ft 412 kts 178°
2026-05-07 15:17 32.06216 -16.63087 19720 ft 413 kts 179°
2026-05-07 15:18 32.02401 -16.62534 20552 ft 414 kts 180°
2026-05-07 15:18 31.99502 -16.62173 21054 ft 418 kts 181°
2026-05-07 15:18 31.96580 -16.61837 21665 ft 418 kts 181°
2026-05-07 15:18 31.93689 -16.61514 22093 ft 423 kts 181°
2026-05-07 15:19 31.90728 -16.61191 22725 ft 423 kts 181°
2026-05-07 15:19 31.87828 -16.60873 23260 ft 425 kts 181°
2026-05-07 15:19 31.84874 -16.60552 23711 ft 429 kts 181°
2026-05-07 15:19 31.81854 -16.60224 24139 ft 433 kts 182°
2026-05-07 15:20 31.78869 -16.59897 24661 ft 435 kts 182°
2026-05-07 15:20 31.75839 -16.59564 25160 ft 438 kts 182°
2026-05-07 15:20 31.72761 -16.59227 25644 ft 440 kts 182°
2026-05-07 15:20 31.69726 -16.58895 25999 ft 445 kts 182°
2026-05-07 15:21 31.66618 -16.58556 26477 ft 447 kts 182°
2026-05-07 15:21 31.63516 -16.58216 26897 ft 449 kts 182°
2026-05-07 15:21 31.60404 -16.57872 27446 ft 449 kts 182°
2026-05-07 15:21 31.57308 -16.57526 28124 ft 444 kts 183°
2026-05-07 15:22 31.54244 -16.57179 28898 ft 438 kts 183°
2026-05-07 15:22 31.51259 -16.56840 29636 ft 431 kts 184°
2026-05-07 15:22 31.48291 -16.56509 30095 ft 431 kts 184°
2026-05-07 15:22 31.45291 -16.56183 30415 ft 434 kts 184°
2026-05-07 15:23 31.42255 -16.55857 30796 ft 435 kts 184°
2026-05-07 15:23 31.39250 -16.55535 30997 ft 437 kts 185°
2026-05-07 15:23 31.33208 -16.54906 30997 ft 433 kts 185°
2026-05-07 15:24 31.27176 -16.54294 30998 ft 435 kts 185°
2026-05-07 15:24 31.21104 -16.53677 30990 ft 434 kts 185°
2026-05-07 15:25 31.15044 -16.53054 30999 ft 437 kts 185°
2026-05-07 15:25 31.09013 -16.52435 30995 ft 438 kts 185°
2026-05-07 15:26 31.02932 -16.51812 30996 ft 439 kts 185°
2026-05-07 15:26 30.96804 -16.51184 30996 ft 436 kts 185°
2026-05-07 15:27 30.90738 -16.50559 30988 ft 436 kts 184°
2026-05-07 15:27 30.84677 -16.49942 30987 ft 439 kts 185°
2026-05-07 15:28 30.78534 -16.49317 30982 ft 439 kts 185°
2026-05-07 15:28 30.72472 -16.48697 30981 ft 439 kts 184°
2026-05-07 15:29 30.66316 -16.48075 30980 ft 444 kts 185°
2026-05-07 15:29 30.60158 -16.47448 30980 ft 438 kts 184°
2026-05-07 15:30 30.54027 -16.46827 30983 ft 445 kts 184°
2026-05-07 15:30 30.47854 -16.46197 30982 ft 441 kts 184°
2026-05-07 15:31 30.41707 -16.45578 30984 ft 442 kts 184°
2026-05-07 15:31 30.35526 -16.44953 30983 ft 444 kts 184°
2026-05-07 15:32 30.29342 -16.44326 30986 ft 443 kts 184°
2026-05-07 15:32 30.23171 -16.43705 30984 ft 446 kts 184°
2026-05-07 15:33 30.16994 -16.43080 30987 ft 444 kts 184°
2026-05-07 15:33 30.10807 -16.42460 30985 ft 448 kts 184°
2026-05-07 15:34 30.04620 -16.41840 30987 ft 448 kts 184°
2026-05-07 15:34 29.98404 -16.41215 30989 ft 445 kts 184°
2026-05-07 15:35 29.92158 -16.40591 30985 ft 446 kts 184°
2026-05-07 15:35 29.85932 -16.39971 30987 ft 448 kts 184°
2026-05-07 15:36 29.79697 -16.39346 30988 ft 447 kts 184°
2026-05-07 15:36 29.73435 -16.38724 30989 ft 449 kts 183°
2026-05-07 15:37 29.67138 -16.38095 30988 ft 450 kts 183°
2026-05-07 15:37 29.60881 -16.37138 30986 ft 457 kts 175°
2026-05-07 15:38 29.57780 -16.36079 30991 ft 469 kts 168°
2026-05-07 15:38 29.54740 -16.34607 30991 ft 477 kts 163°
2026-05-07 15:38 29.48819 -16.31089 30992 ft 481 kts 159°
2026-05-07 15:39 29.42939 -16.27280 30993 ft 482 kts 158°
2026-05-07 15:39 29.37114 -16.23489 30996 ft 479 kts 159°
2026-05-07 15:40 29.31274 -16.19747 30995 ft 482 kts 159°
2026-05-07 15:40 29.25397 -16.16023 30995 ft 481 kts 159°
2026-05-07 15:41 29.19487 -16.12298 30991 ft 478 kts 159°
2026-05-07 15:41 29.13600 -16.08602 30989 ft 482 kts 159°
2026-05-07 15:42 29.07732 -16.04924 30988 ft 481 kts 159°
2026-05-07 15:42 29.01847 -16.01240 30988 ft 481 kts 159°
2026-05-07 15:43 28.95952 -15.97555 30988 ft 482 kts 159°
2026-05-07 15:43 28.90026 -15.93855 30988 ft 483 kts 159°
2026-05-07 15:44 28.84159 -15.90192 30986 ft 480 kts 159°
2026-05-07 15:44 28.78243 -15.86510 30696 ft 483 kts 158°
2026-05-07 15:45 28.75286 -15.84670 30421 ft 479 kts 158°
2026-05-07 15:45 28.72369 -15.82855 30159 ft 480 kts 158°
2026-05-07 15:45 28.69391 -15.81006 29573 ft 483 kts 158°
2026-05-07 15:45 28.66438 -15.79173 28922 ft 481 kts 158°
2026-05-07 15:46 28.60591 -15.75541 27635 ft 478 kts 158°
2026-05-07 15:46 28.57655 -15.73722 26988 ft 480 kts 158°
2026-05-07 15:46 28.54700 -15.71894 26342 ft 485 kts 158°
2026-05-07 15:47 28.51741 -15.70067 25700 ft 486 kts 157°
2026-05-07 15:47 28.48765 -15.68227 25057 ft 486 kts 157°
2026-05-07 15:47 28.45793 -15.66388 24421 ft 483 kts 157°
2026-05-07 15:47 28.42840 -15.64559 23788 ft 478 kts 157°
2026-05-07 15:48 28.39911 -15.62744 23159 ft 473 kts 157°
2026-05-07 15:48 28.37045 -15.60970 22547 ft 469 kts 157°
2026-05-07 15:48 28.34176 -15.59197 21937 ft 464 kts 156°
2026-05-07 15:48 28.31358 -15.57458 21329 ft 460 kts 156°
2026-05-07 15:49 28.28522 -15.55709 20718 ft 455 kts 156°
2026-05-07 15:49 28.25759 -15.54008 20115 ft 452 kts 156°
2026-05-07 15:49 28.22995 -15.52308 19512 ft 448 kts 156°
2026-05-07 15:49 28.20275 -15.50636 18912 ft 443 kts 156°
2026-05-07 15:50 28.17585 -15.48982 18301 ft 439 kts 156°
2026-05-07 15:50 28.14892 -15.47324 17686 ft 435 kts 155°
2026-05-07 15:50 28.12333 -15.45472 17072 ft 436 kts 147°
2026-05-07 15:50 28.10162 -15.43056 16449 ft 440 kts 129°
2026-05-07 15:51 28.08744 -15.40015 15841 ft 443 kts 110°
2026-05-07 15:51 28.08180 -15.36589 15262 ft 442 kts 92°
2026-05-07 15:51 28.08301 -15.33140 14661 ft 439 kts 86°
2026-05-07 15:51 28.08557 -15.29682 14049 ft 435 kts 85°
2026-05-07 15:52 28.08824 -15.26289 13435 ft 430 kts 85°
2026-05-07 15:52 28.09087 -15.22924 12863 ft 426 kts 85°
2026-05-07 15:52 28.09339 -15.19602 12257 ft 421 kts 85°
2026-05-07 15:52 28.09580 -15.16326 11665 ft 417 kts 85°
2026-05-07 15:53 28.09810 -15.13111 11147 ft 411 kts 85°
2026-05-07 15:53 28.10035 -15.09881 10979 ft 401 kts 85°
2026-05-07 15:53 28.10253 -15.06705 10966 ft 406 kts 85°
2026-05-07 15:53 28.10469 -15.03523 10913 ft 396 kts 85°
2026-05-07 15:54 28.10677 -15.00468 10740 ft 382 kts 85°
2026-05-07 15:54 28.10878 -14.97508 10620 ft 366 kts 85°
2026-05-07 15:54 28.11067 -14.94712 10482 ft 353 kts 86°
2026-05-07 15:54 28.11252 -14.91978 10359 ft 339 kts 85°
2026-05-07 15:55 28.11429 -14.89347 10216 ft 328 kts 85°
2026-05-07 15:55 28.11596 -14.86851 10086 ft 316 kts 85°
2026-05-07 15:55 28.11762 -14.84385 9881 ft 311 kts 85°
2026-05-07 15:55 28.11925 -14.81958 9665 ft 309 kts 85°
2026-05-07 15:56 28.12086 -14.79536 9447 ft 308 kts 85°
2026-05-07 15:56 28.12248 -14.77107 9229 ft 305 kts 85°
2026-05-07 15:56 28.12407 -14.74708 9011 ft 305 kts 85°
2026-05-07 15:56 28.12565 -14.72319 8792 ft 304 kts 84°
2026-05-07 15:57 28.12724 -14.69922 8575 ft 304 kts 85°
2026-05-07 15:57 28.12881 -14.67544 8353 ft 302 kts 84°
2026-05-07 15:57 28.13036 -14.65175 8136 ft 301 kts 84°
2026-05-07 15:57 28.13192 -14.62795 7911 ft 298 kts 84°
2026-05-07 15:58 28.13343 -14.60461 7693 ft 296 kts 84°
2026-05-07 15:58 28.13496 -14.58126 7473 ft 295 kts 84°
2026-05-07 15:58 28.13646 -14.55816 7251 ft 294 kts 83°
2026-05-07 15:58 28.13796 -14.53512 7030 ft 294 kts 83°
2026-05-07 15:59 28.13946 -14.51198 6804 ft 292 kts 83°
2026-05-07 15:59 28.14092 -14.48939 6586 ft 290 kts 83°
2026-05-07 15:59 28.14239 -14.46655 6364 ft 289 kts 83°
2026-05-07 15:59 28.14385 -14.44373 6143 ft 288 kts 83°
2026-05-07 16:00 28.14529 -14.42115 5921 ft 286 kts 83°
2026-05-07 16:00 28.14673 -14.39872 5696 ft 283 kts 83°
2026-05-07 16:00 28.14816 -14.37635 5474 ft 283 kts 83°
2026-05-07 16:00 28.14955 -14.35439 5250 ft 279 kts 83°
2026-05-07 16:01 28.15094 -14.33237 5031 ft 278 kts 83°
2026-05-07 16:01 28.15230 -14.31079 4968 ft 274 kts 83°
2026-05-07 16:01 28.15369 -14.28899 4966 ft 278 kts 83°
2026-05-07 16:01 28.15507 -14.26729 4965 ft 277 kts 83°
2026-05-07 16:02 28.15652 -14.24529 4967 ft 278 kts 82°
2026-05-07 16:02 28.15965 -14.22384 4900 ft 273 kts 74°
2026-05-07 16:02 28.16429 -14.20340 4711 ft 265 kts 71°
2026-05-07 16:02 28.16906 -14.18344 4512 ft 258 kts 72°
2026-05-07 16:03 28.17334 -14.16396 4304 ft 253 kts 73°
2026-05-07 16:03 28.17728 -14.14446 4077 ft 249 kts 74°
2026-05-07 16:03 28.18096 -14.12558 3853 ft 244 kts 75°
2026-05-07 16:03 28.18460 -14.10685 3631 ft 240 kts 75°
2026-05-07 16:04 28.18820 -14.08843 3408 ft 236 kts 75°
2026-05-07 16:04 28.19167 -14.07061 3186 ft 232 kts 75°
2026-05-07 16:04 28.19520 -14.05264 2957 ft 229 kts 75°
2026-05-07 16:04 28.19861 -14.03523 2712 ft 226 kts 75°
2026-05-07 16:05 28.20194 -14.01813 2502 ft 216 kts 75°
2026-05-07 16:05 28.20505 -14.00203 2493 ft 205 kts 75°
2026-05-07 16:05 28.20816 -13.98607 2468 ft 206 kts 75°
2026-05-07 16:05 28.21123 -13.97025 2472 ft 204 kts 75°
2026-05-07 16:06 28.21431 -13.95445 2470 ft 205 kts 75°
2026-05-07 16:06 28.21732 -13.93900 2465 ft 194 kts 75°
2026-05-07 16:06 28.22012 -13.92454 2467 ft 184 kts 75°
2026-05-07 16:06 28.22288 -13.91039 2479 ft 185 kts 75°
2026-05-07 16:07 28.22570 -13.89595 2477 ft 186 kts 74°
2026-05-07 16:07 28.22952 -13.88200 2468 ft 184 kts 58°
2026-05-07 16:07 28.23849 -13.87231 2476 ft 180 kts 20°
2026-05-07 16:07 28.25052 -13.87002 2473 ft 180 kts 359°
2026-05-07 16:08 28.26320 -13.87014 2469 ft 179 kts
2026-05-07 16:08 28.27562 -13.86969 2478 ft 175 kts
2026-05-07 16:08 28.28775 -13.86917 2483 ft 172 kts
2026-05-07 16:08 28.29983 -13.86880 2475 ft 174 kts
2026-05-07 16:09 28.31147 -13.86844 2475 ft 158 kts
2026-05-07 16:09 28.32185 -13.86808 2416 ft 148 kts
2026-05-07 16:09 28.33219 -13.86773 2133 ft 145 kts
2026-05-07 16:09 28.34213 -13.86741 1961 ft 142 kts
2026-05-07 16:10 28.35213 -13.86707 1770 ft 144 kts
2026-05-07 16:10 28.36212 -13.86676 1574 ft 143 kts
2026-05-07 16:10 28.37221 -13.86641 1381 ft 145 kts
2026-05-07 16:10 28.38227 -13.86586 1120 ft 143 kts
2026-05-07 16:11 28.39236 -13.86556 936 ft 142 kts
2026-05-07 16:11 28.40219 -13.86571 760 ft 140 kts
2026-05-07 16:11 28.41189 -13.86549 613 ft 139 kts
2026-05-07 16:11 28.42165 -13.86496 444 ft 139 kts
2026-05-07 16:12 28.43127 -13.86460 256 ft 140 kts
2026-05-07 16:12 28.44101 -13.86422 83 ft 138 kts
2026-05-07 16:12 28.45033 -13.86385 33 ft 123 kts
2026-05-07 16:12 28.45735 -13.86360 34 ft 67 kts
2026-05-07 16:13 28.45943 -13.86374 34 ft 7 kts 343°
2026-05-07 16:13 28.45994 -13.86391 34 ft 8 kts 343°
2026-05-07 16:13 28.46101 -13.86446 34 ft 24 kts 333°
2026-05-07 16:13 28.46064 -13.86543 34 ft 22 kts 180°
2026-05-07 16:14 28.45867 -13.86548 34 ft 31 kts 181°
2026-05-07 16:14 28.45648 -13.86557 34 ft 31 kts 180°
2026-05-07 16:14 28.45477 -13.86562 34 ft 14 kts 183°
2026-05-07 16:14 28.45405 -13.86566 34 ft 9 kts 181°
2026-05-07 16:15 28.45372 -13.86618 34 ft 10 kts 265°
2026-05-07 16:15 28.45367 -13.86704 34 ft 10 kts 251°
2026-05-07 16:15 28.45321 -13.86737 34 ft 7 kts 180°
2026-05-07 16:15 28.45269 -13.86737 34 ft 7 kts 182°
2026-05-07 16:16 28.45218 -13.86739 34 ft 7 kts 182°
2026-05-07 16:16 28.45188 -13.86741 34 ft 2 kts 182°
2026-05-07 16:16 28.45174 -13.86758 34 ft 6 kts 251°
2026-05-07 16:16 28.45172 -13.86804 34 ft 5 kts 272°
2026-05-07 16:17 28.45173 -13.86828 34 ft 0 kts 271°